Find Globalstar M042

NORAD ID: 25679 Int'l Des: 1999-019 Owner: GLOBT Country: US Constellation: globalstar operational
LEOCIRCULAR

Live-Position

3D-Globus wird geladen...

Über Globalstar M042

Beschreibung wird geladen...

Nächste Überflüge

Passes for default location (London). Set your location on the main map for personalized predictions.

Höhenverlauf

Loading altitude history...

Zweizeiliger Elementsatz

1 25679U 99019D 26104.88400021 -.00000057 00000-0 33441-3 0 9994
2 25679 52.0013 279.2445 0002846 184.6705 323.6059 12.22096489222148
Epoch: 14. Apr. 2026 • Age: 6 hours

Aktueller Status

Höhe 1582.6 km
Geschwindigkeit 7.08 km/s
Subsatellitenpunkt -5.10°S, 150.48°W
Startdatum 15. Apr. 1999
Alter 27 years
Typ communications

Technische Details

Klassifizierung Payload
Masse 450.00 kg
Trockenmasse 380.00 kg
Gesamtmasse 450.00 kg
Länge 1.50 m
Durchmesser 0.60 m
Spannweite 12.00 m
Form Box + 2 Pan
Hersteller LOR
Bus-Typ LS-400
Phasenstatus In Orbit
Besitzer/Staat GLOBT/US

Most Searched